TimeCDT,TemperatureF,Dew PointF,Humidity,Sea Level PressureIn,VisibilityMPH,Wind Direction,Wind SpeedMPH,Gust SpeedMPH,PrecipitationIn,Events,Conditions,WindDirDegrees,DateUTC
12:53 AM,68.0,61.0,78,30.12,10.0,SSE,5.8,-,N/A,,Clear,150,2013-05-25 05:53:00
1:53 AM,66.9,61.0,81,30.14,10.0,SSE,8.1,-,N/A,,Overcast,150,2013-05-25 06:53:00
2:53 AM,66.9,60.1,79,30.13,10.0,South,6.9,-,N/A,,Overcast,180,2013-05-25 07:53:00
3:24 AM,66.2,60.8,83,30.15,10.0,South,9.2,-,N/A,,Overcast,170,2013-05-25 08:24:00
3:48 AM,66.2,60.8,83,30.15,10.0,South,8.1,-,N/A,,Overcast,170,2013-05-25 08:48:00
3:53 AM,66.9,60.1,79,30.12,10.0,South,6.9,-,N/A,,Overcast,170,2013-05-25 08:53:00
4:53 AM,64.9,60.1,84,30.13,10.0,South,5.8,-,N/A,,Mostly Cloudy,170,2013-05-25 09:53:00
5:53 AM,64.0,59.0,84,30.16,10.0,SE,4.6,-,N/A,,Scattered Clouds,140,2013-05-25 10:53:00
6:53 AM,64.9,59.0,81,30.16,10.0,South,9.2,-,N/A,,Clear,170,2013-05-25 11:53:00
7:53 AM,66.9,59.0,76,30.17,10.0,South,9.2,-,N/A,,Clear,170,2013-05-25 12:53:00
8:53 AM,69.1,60.1,73,30.15,10.0,South,10.4,18.4,N/A,,Clear,180,2013-05-25 13:53:00
9:53 AM,72.0,61.0,68,30.14,10.0,South,8.1,18.4,N/A,,Clear,180,2013-05-25 14:53:00
10:53 AM,75.9,63.0,64,30.12,10.0,South,11.5,19.6,N/A,,Clear,170,2013-05-25 15:53:00
11:53 AM,78.1,63.0,60,30.13,10.0,South,11.5,21.9,N/A,,Clear,170,2013-05-25 16:53:00
12:53 PM,81.0,64.9,58,30.12,10.0,South,11.5,19.6,N/A,,Clear,170,2013-05-25 17:53:00
1:53 PM,82.0,66.0,58,30.10,10.0,South,12.7,23.0,N/A,,Clear,180,2013-05-25 18:53:00
2:53 PM,82.9,66.0,56,30.09,10.0,South,8.1,17.3,N/A,,Partly Cloudy,190,2013-05-25 19:53:00
3:53 PM,82.9,66.0,56,30.07,10.0,South,6.9,16.1,N/A,,Scattered Clouds,180,2013-05-25 20:53:00
4:53 PM,84.0,66.0,55,30.05,10.0,SSE,12.7,19.6,N/A,,Mostly Cloudy,160,2013-05-25 21:53:00
5:53 PM,82.9,66.0,56,30.03,10.0,SSE,16.1,19.6,N/A,,Partly Cloudy,160,2013-05-25 22:53:00
6:53 PM,82.0,66.9,60,30.00,10.0,South,11.5,18.4,N/A,,Scattered Clouds,170,2013-05-25 23:53:00
7:53 PM,79.0,69.1,72,29.99,10.0,SSE,15.0,21.9,N/A,,Mostly Cloudy,160,2013-05-26 00:53:00
8:53 PM,75.0,68.0,79,29.99,10.0,South,5.8,-,N/A,,Clear,170,2013-05-26 01:53:00
9:53 PM,72.0,69.1,91,30.01,10.0,Calm,Calm,-,N/A,,Clear,0,2013-05-26 02:53:00
10:53 PM,71.1,68.0,90,30.05,10.0,Calm,Calm,-,N/A,,Clear,0,2013-05-26 03:53:00
11:53 PM,71.1,68.0,90,30.04,10.0,SSE,6.9,-,N/A,,Mostly Cloudy,150,2013-05-26 04:53:00